Home   Weather   Paris Island   Past weeks
Flag for USA

Past Weather in Paris Island, Georgia, USA — Yesterday and Last 2 Weeks

Now
65 °F

Sunny.


Feels Like: 65 °F
Forecast: 64 / 38 °F
Wind: 9 mph from Southwest

Location: Anderson County Airport

Current Time: Nov 21, 2019 at 5:00:12 pm

Latest Report: Nov 21, 2019 at 3:56 pm


Visibility: 10 mi

Pressure: 30.17 "Hg

Humidity: 42%

Dew Point: 41 °F

Location of Paris IslandLocation

Past Weather in Paris Island — Graph

°F

Paris Island Temperature Yesterday

Maximum temperature yesterday: 62 °F (at 1:56 pm)
Minimum temperature yesterday: 36 °F (at 6:56 am)
Average temperature yesterday: 49 °F

High & Low Weather Summary for the Past Weeks

 TemperatureHumidityPressure
High69 °F (Nov 6, 2:56 pm)97% (Nov 8, 1:30 am)30.43 "Hg (Nov 8, 1:30 am)
Low25 °F (Nov 13, 5:56 am)27% (Nov 13, 2:56 pm)29.72 "Hg (Nov 18, 3:56 pm)
Average48 °F68%30.10 "Hg
* Reported Nov 6 2:56 pm — Nov 21 2:56 pm, Paris Island. Weather by CustomWeather, © 2019

Note: Actual official high and low records may vary slightly from our data, if they occured in-between our weather recording intervals... More about our weather records

Advertising

Paris Island Weather History for the Previous 24 Hours

Scroll right to see more
 ConditionsComfort  
Time TempWeatherWind HumidityBarometerVisibility
2:56 pm
Thu, Nov 21
63 °FSunny.8 mph43%30.19 "Hg10 mi
1:56 pm64 °FSunny.7 mph43%30.20 "Hg10 mi
12:56 pm61 °FSunny.9 mph46%30.22 "Hg10 mi
11:56 am60 °FSunny.8 mph47%30.27 "Hg10 mi
10:56 am57 °FSunny.3 mph53%30.29 "Hg10 mi
9:56 am52 °FSunny.No wind61%30.31 "Hg10 mi
8:56 am48 °FSunny.No wind74%30.31 "Hg10 mi
7:56 am41 °FSunny.6 mph93%30.32 "Hg10 mi
6:56 am37 °FClear.No wind93%30.29 "Hg10 mi
5:56 am37 °FClear.No wind93%30.28 "Hg10 mi
4:56 am39 °FClear.No wind89%30.27 "Hg10 mi
3:56 am41 °FClear.No wind89%30.27 "Hg10 mi
2:56 am43 °FClear.5 mph82%30.25 "Hg10 mi
1:56 am41 °FClear.3 mph89%30.24 "Hg10 mi
12:56 am42 °FClear.No wind85%30.25 "Hg10 mi
11:56 pm
Wed, Nov 20
43 °FClear.No wind82%30.24 "Hg10 mi
10:56 pm44 °FClear.No wind82%30.24 "Hg10 mi
9:56 pm43 °FClear.No wind82%30.24 "Hg8 mi
8:56 pm44 °FClear.No wind79%30.23 "Hg10 mi
7:56 pm47 °FClear.No wind74%30.22 "Hg10 mi
6:56 pm50 °FClear.No wind66%30.20 "Hg10 mi
5:56 pm54 °FClear.No wind55%30.18 "Hg10 mi
Weather by CustomWeather, © 2019

See weather overview